Year,Month,Day,Hour,Minute,Value (Times are PST for temperature in C)
2006,09,24,00,00,11.10
2006,09,24,00,01,11.10
2006,09,24,00,02,11.10
2006,09,24,00,03,11.10
2006,09,24,00,04,11.00
2006,09,24,00,05,10.90
2006,09,24,00,06,10.90
2006,09,24,00,07,10.90
2006,09,24,00,08,10.90
2006,09,24,00,09,10.90
2006,09,24,00,10,10.90
2006,09,24,00,11,10.90
2006,09,24,00,12,10.90
2006,09,24,00,13,10.90
2006,09,24,00,14,10.90
2006,09,24,00,15,10.90
2006,09,24,00,16,10.90
2006,09,24,00,17,10.90
2006,09,24,00,18,10.80
2006,09,24,00,19,10.80
2006,09,24,00,20,10.80
2006,09,24,00,21,10.80
2006,09,24,00,22,10.80
2006,09,24,00,23,10.90
2006,09,24,00,24,10.90
2006,09,24,00,25,10.90
2006,09,24,00,26,10.90
2006,09,24,00,27,10.90
2006,09,24,00,28,10.80
2006,09,24,00,29,10.80
2006,09,24,00,30,10.80
2006,09,24,00,31,10.80
2006,09,24,00,32,10.80
2006,09,24,00,33,10.70
2006,09,24,00,34,10.70
2006,09,24,00,35,10.70
2006,09,24,00,36,10.60
2006,09,24,00,37,10.60
2006,09,24,00,38,10.60
2006,09,24,00,39,10.60
2006,09,24,00,40,10.70
2006,09,24,00,41,10.70
2006,09,24,00,42,10.60
2006,09,24,00,43,10.70
2006,09,24,00,44,10.70
2006,09,24,00,45,10.70
2006,09,24,00,46,10.70
2006,09,24,00,47,10.70
2006,09,24,00,48,10.60
2006,09,24,00,49,10.70
2006,09,24,00,50,10.70
2006,09,24,00,51,10.70
2006,09,24,00,52,10.70
2006,09,24,00,53,10.60
2006,09,24,00,54,10.60
2006,09,24,00,55,10.60
2006,09,24,00,56,10.60
2006,09,24,00,57,10.60
2006,09,24,00,58,10.60
2006,09,24,00,59,10.60
2006,09,24,01,00,10.60
2006,09,24,01,01,10.60
2006,09,24,01,02,10.60
2006,09,24,01,03,10.60
2006,09,24,01,04,10.60
2006,09,24,01,05,10.60
2006,09,24,01,06,10.60
2006,09,24,01,07,10.60
2006,09,24,01,08,10.60
2006,09,24,01,09,10.60
2006,09,24,01,10,10.60
2006,09,24,01,11,10.60
2006,09,24,01,12,10.60
2006,09,24,01,13,10.60
2006,09,24,01,14,10.60
2006,09,24,01,15,10.60
2006,09,24,01,16,10.60
2006,09,24,01,17,10.60
2006,09,24,01,18,10.70
2006,09,24,01,19,10.70
2006,09,24,01,20,10.60
2006,09,24,01,21,10.60
2006,09,24,01,22,10.60
2006,09,24,01,23,10.70
2006,09,24,01,24,10.70
2006,09,24,01,25,10.70
2006,09,24,01,26,10.70
2006,09,24,01,27,10.70
2006,09,24,01,28,10.70
2006,09,24,01,29,10.60
2006,09,24,01,30,10.60
2006,09,24,01,31,10.60
2006,09,24,01,32,10.60
2006,09,24,01,33,10.60
2006,09,24,01,34,10.70
2006,09,24,01,35,10.70
2006,09,24,01,36,10.80
2006,09,24,01,37,10.90
2006,09,24,01,38,10.90
2006,09,24,01,39,10.90
2006,09,24,01,40,10.80
2006,09,24,01,41,10.80
2006,09,24,01,42,10.70
2006,09,24,01,43,10.70
2006,09,24,01,44,10.70
2006,09,24,01,45,10.70
2006,09,24,01,46,10.80
2006,09,24,01,47,10.80
2006,09,24,01,48,10.90
2006,09,24,01,49,10.90
2006,09,24,01,50,10.90
2006,09,24,01,51,10.90
2006,09,24,01,52,10.80
2006,09,24,01,53,10.80
2006,09,24,01,54,10.80
2006,09,24,01,55,10.80
2006,09,24,01,56,10.80
2006,09,24,01,57,10.80
2006,09,24,01,58,10.70
2006,09,24,01,59,10.70
2006,09,24,02,00,10.70
2006,09,24,02,01,10.60
2006,09,24,02,02,10.60
2006,09,24,02,03,10.60
2006,09,24,02,04,10.60
2006,09,24,02,05,10.60
2006,09,24,02,06,10.60
2006,09,24,02,07,10.50
2006,09,24,02,08,10.40
2006,09,24,02,09,10.40
2006,09,24,02,10,10.40
2006,09,24,02,11,10.40
2006,09,24,02,12,10.40
2006,09,24,02,13,10.40
2006,09,24,02,14,10.40
2006,09,24,02,15,10.40
2006,09,24,02,16,10.40
2006,09,24,02,17,10.40
2006,09,24,02,18,10.50
2006,09,24,02,19,10.60
2006,09,24,02,20,10.60
2006,09,24,02,21,10.60
2006,09,24,02,22,10.60
2006,09,24,02,23,10.60
2006,09,24,02,24,10.60
2006,09,24,02,25,10.60
2006,09,24,02,26,10.60
2006,09,24,02,27,10.60
2006,09,24,02,28,10.60
2006,09,24,02,29,10.50
2006,09,24,02,30,10.40
2006,09,24,02,31,10.40
2006,09,24,02,32,10.40
2006,09,24,02,33,10.40
2006,09,24,02,34,10.40
2006,09,24,02,35,10.40
2006,09,24,02,36,10.40
2006,09,24,02,37,10.30
2006,09,24,02,38,10.30
2006,09,24,02,39,10.30
2006,09,24,02,40,10.30
2006,09,24,02,41,10.20
2006,09,24,02,42,10.20
2006,09,24,02,43,10.20
2006,09,24,02,44,10.20
2006,09,24,02,45,10.20
2006,09,24,02,46,10.20
2006,09,24,02,47,10.20
2006,09,24,02,48,10.20
2006,09,24,02,49,10.20
2006,09,24,02,50,10.20
2006,09,24,02,51,10.20
2006,09,24,02,52,10.20
2006,09,24,02,53,10.20
2006,09,24,02,54,10.20
2006,09,24,02,55,10.20
2006,09,24,02,56,10.20
2006,09,24,02,57,10.10
2006,09,24,02,58,10.10
2006,09,24,02,59,10.10
2006,09,24,03,00,10.10
2006,09,24,03,01,10.10
2006,09,24,03,02,10.10
2006,09,24,03,03,10.10
2006,09,24,03,04,10.10
2006,09,24,03,05,10.10
2006,09,24,03,06,10.10
2006,09,24,03,07,10.10
2006,09,24,03,08,10.10
2006,09,24,03,09,10.10
2006,09,24,03,10,10.10
2006,09,24,03,11,10.10
2006,09,24,03,12,10.10
2006,09,24,03,13,10.10
2006,09,24,03,14,10.10
2006,09,24,03,15,10.10
2006,09,24,03,16,10.10
2006,09,24,03,17,10.10
2006,09,24,03,18,10.10
2006,09,24,03,19,10.10
2006,09,24,03,20,10.10
2006,09,24,03,21,10.10
2006,09,24,03,22,10.10
2006,09,24,03,23,10.10
2006,09,24,03,24,10.10
2006,09,24,03,25,10.10
2006,09,24,03,26,10.10
2006,09,24,03,27,10.10
2006,09,24,03,28,10.00
2006,09,24,03,29,9.90
2006,09,24,03,30,9.90
2006,09,24,03,31,9.80
2006,09,24,03,32,9.80
2006,09,24,03,33,9.70
2006,09,24,03,34,9.70
2006,09,24,03,35,9.70
2006,09,24,03,36,9.70
2006,09,24,03,37,9.70
2006,09,24,03,38,9.70
2006,09,24,03,39,9.70
2006,09,24,03,40,9.70
2006,09,24,03,41,9.70
2006,09,24,03,42,9.70
2006,09,24,03,43,9.70
2006,09,24,03,44,9.70
2006,09,24,03,45,9.70
2006,09,24,03,46,9.70
2006,09,24,03,47,9.70
2006,09,24,03,48,9.70
2006,09,24,03,49,9.70
2006,09,24,03,50,9.80
2006,09,24,03,51,9.80
2006,09,24,03,52,9.70
2006,09,24,03,53,9.70
2006,09,24,03,54,9.70
2006,09,24,03,55,9.70
2006,09,24,03,56,9.70
2006,09,24,03,57,9.70
2006,09,24,03,58,9.70
2006,09,24,03,59,9.70
2006,09,24,04,00,9.70
2006,09,24,04,01,9.70
2006,09,24,04,02,9.70
2006,09,24,04,03,9.70
2006,09,24,04,04,9.70
2006,09,24,04,05,9.70
2006,09,24,04,06,9.70
2006,09,24,04,07,9.70
2006,09,24,04,08,9.70
2006,09,24,04,09,9.70
2006,09,24,04,10,9.70
2006,09,24,04,11,9.70
2006,09,24,04,12,9.70
2006,09,24,04,13,9.80
2006,09,24,04,14,9.80
2006,09,24,04,15,9.80
2006,09,24,04,16,9.80
2006,09,24,04,17,9.80
2006,09,24,04,18,9.80
2006,09,24,04,19,9.90
2006,09,24,04,20,9.90
2006,09,24,04,21,9.90
2006,09,24,04,22,9.90
2006,09,24,04,23,9.90
2006,09,24,04,24,9.90
2006,09,24,04,25,9.90
2006,09,24,04,26,9.80
2006,09,24,04,27,9.80
2006,09,24,04,28,9.80
2006,09,24,04,29,9.80
2006,09,24,04,30,9.80
2006,09,24,04,31,9.80
2006,09,24,04,32,9.80
2006,09,24,04,33,9.80
2006,09,24,04,34,9.90
2006,09,24,04,35,9.90
2006,09,24,04,36,9.80
2006,09,24,04,37,9.80
2006,09,24,04,38,9.80
2006,09,24,04,39,9.80
2006,09,24,04,40,9.80
2006,09,24,04,41,9.80
2006,09,24,04,42,9.80
2006,09,24,04,43,9.70
2006,09,24,04,44,9.70
2006,09,24,04,45,9.70
2006,09,24,04,46,9.70
2006,09,24,04,47,9.70
2006,09,24,04,48,9.70
2006,09,24,04,49,9.70
2006,09,24,04,50,9.70
2006,09,24,04,51,9.70
2006,09,24,04,52,9.70
2006,09,24,04,53,9.70
2006,09,24,04,54,9.70
2006,09,24,04,55,9.70
2006,09,24,04,56,9.70
2006,09,24,04,57,9.70
2006,09,24,04,58,9.70
2006,09,24,04,59,9.70
2006,09,24,05,00,9.70
2006,09,24,05,01,9.70
2006,09,24,05,02,9.70
2006,09,24,05,03,9.70
2006,09,24,05,04,9.70
2006,09,24,05,05,9.70
2006,09,24,05,06,9.70
2006,09,24,05,07,9.70
2006,09,24,05,08,9.70
2006,09,24,05,09,9.70
2006,09,24,05,10,9.70
2006,09,24,05,11,9.70
2006,09,24,05,12,9.60
2006,09,24,05,13,9.60
2006,09,24,05,14,9.60
2006,09,24,05,15,9.60
2006,09,24,05,16,9.60
2006,09,24,05,17,9.60
2006,09,24,05,18,9.60
2006,09,24,05,19,9.60
2006,09,24,05,20,9.60
2006,09,24,05,21,9.60
2006,09,24,05,22,9.50
2006,09,24,05,23,9.50
2006,09,24,05,24,9.50
2006,09,24,05,25,9.50
2006,09,24,05,26,9.50
2006,09,24,05,27,9.50
2006,09,24,05,28,9.40
2006,09,24,05,29,9.40
2006,09,24,05,30,9.40
2006,09,24,05,31,9.40
2006,09,24,05,32,9.40
2006,09,24,05,33,9.40
2006,09,24,05,34,9.40
2006,09,24,05,35,9.40
2006,09,24,05,36,9.40
2006,09,24,05,37,9.40
2006,09,24,05,38,9.40
2006,09,24,05,39,9.50
2006,09,24,05,40,9.50
2006,09,24,05,41,9.50
2006,09,24,05,42,9.50
2006,09,24,05,43,9.50
2006,09,24,05,44,9.50
2006,09,24,05,45,9.50
2006,09,24,05,46,9.50
2006,09,24,05,47,9.50
2006,09,24,05,48,9.50
2006,09,24,05,49,9.40
2006,09,24,05,50,9.40
2006,09,24,05,51,9.40
2006,09,24,05,52,9.50
2006,09,24,05,53,9.50
2006,09,24,05,54,9.40
2006,09,24,05,55,9.40
2006,09,24,05,56,9.50
2006,09,24,05,57,9.50
2006,09,24,05,58,9.50
2006,09,24,05,59,9.50
2006,09,24,06,00,9.50
2006,09,24,06,01,9.50
2006,09,24,06,02,9.40
2006,09,24,06,03,9.40
2006,09,24,06,04,9.40
2006,09,24,06,05,9.40
2006,09,24,06,06,9.40
2006,09,24,06,07,9.30
2006,09,24,06,08,9.30
2006,09,24,06,09,9.30
2006,09,24,06,10,9.20
2006,09,24,06,11,9.20
2006,09,24,06,12,9.20
2006,09,24,06,13,9.30
2006,09,24,06,14,9.30
2006,09,24,06,15,9.30
2006,09,24,06,16,9.40
2006,09,24,06,17,9.40
2006,09,24,06,18,9.40
2006,09,24,06,19,9.40
2006,09,24,06,20,9.30
2006,09,24,06,21,9.30
2006,09,24,06,22,9.30
2006,09,24,06,23,9.30
2006,09,24,06,24,9.20
2006,09,24,06,25,9.20
2006,09,24,06,26,9.20
2006,09,24,06,27,9.20
2006,09,24,06,28,9.20
2006,09,24,06,29,9.20
2006,09,24,06,30,9.20
2006,09,24,06,31,9.20
2006,09,24,06,32,9.20
2006,09,24,06,33,9.20
2006,09,24,06,34,9.20
2006,09,24,06,35,9.20
2006,09,24,06,36,9.20
2006,09,24,06,37,9.20
2006,09,24,06,38,9.10
2006,09,24,06,39,9.10
2006,09,24,06,40,9.20
2006,09,24,06,41,9.20
2006,09,24,06,42,9.20
2006,09,24,06,43,9.20
2006,09,24,06,44,9.20
2006,09,24,06,45,9.20
2006,09,24,06,46,9.20
2006,09,24,06,47,9.20
2006,09,24,06,48,9.20
2006,09,24,06,49,9.20
2006,09,24,06,50,9.20
2006,09,24,06,51,9.20
2006,09,24,06,52,9.20
2006,09,24,06,53,9.20
2006,09,24,06,54,9.10
2006,09,24,06,55,9.20
2006,09,24,06,56,9.20
2006,09,24,06,57,9.20
2006,09,24,06,58,9.20
2006,09,24,06,59,9.20
2006,09,24,07,00,9.20
2006,09,24,07,01,9.20
2006,09,24,07,02,9.20
2006,09,24,07,03,9.20
2006,09,24,07,04,9.20
2006,09,24,07,05,9.20
2006,09,24,07,06,9.20
2006,09,24,07,07,9.20
2006,09,24,07,08,9.20
2006,09,24,07,09,9.20
2006,09,24,07,10,9.20
2006,09,24,07,11,9.20
2006,09,24,07,12,9.30
2006,09,24,07,13,9.30
2006,09,24,07,14,9.30
2006,09,24,07,15,9.40
2006,09,24,07,16,9.40
2006,09,24,07,17,9.40
2006,09,24,07,18,9.30
2006,09,24,07,19,9.20
2006,09,24,07,20,9.30
2006,09,24,07,21,9.30
2006,09,24,07,22,9.30
2006,09,24,07,23,9.30
2006,09,24,07,24,9.40
2006,09,24,07,25,9.40
2006,09,24,07,26,9.50
2006,09,24,07,27,9.50
2006,09,24,07,28,9.40
2006,09,24,07,29,9.40
2006,09,24,07,30,9.40
2006,09,24,07,31,9.40
2006,09,24,07,32,9.40
2006,09,24,07,33,9.40
2006,09,24,07,34,9.50
2006,09,24,07,35,9.60
2006,09,24,07,36,9.60
2006,09,24,07,37,9.70
2006,09,24,07,38,9.70
2006,09,24,07,39,9.70
2006,09,24,07,40,9.70
2006,09,24,07,41,9.70
2006,09,24,07,42,9.70
2006,09,24,07,43,9.80
2006,09,24,07,44,9.80
2006,09,24,07,45,9.80
2006,09,24,07,46,9.80
2006,09,24,07,47,9.90
2006,09,24,07,48,9.90
2006,09,24,07,49,10.00
2006,09,24,07,50,10.10
2006,09,24,07,51,10.10
2006,09,24,07,52,10.10
2006,09,24,07,53,10.10
2006,09,24,07,54,10.20
2006,09,24,07,55,10.20
2006,09,24,07,56,10.30
2006,09,24,07,57,10.30
2006,09,24,07,58,10.40
2006,09,24,07,59,10.40
2006,09,24,08,00,10.40
2006,09,24,08,01,10.40
2006,09,24,08,02,10.50
2006,09,24,08,03,10.60
2006,09,24,08,04,10.60
2006,09,24,08,05,10.60
2006,09,24,08,06,10.60
2006,09,24,08,07,10.60
2006,09,24,08,08,10.70
2006,09,24,08,09,10.80
2006,09,24,08,10,10.80
2006,09,24,08,11,10.90
2006,09,24,08,12,11.00
2006,09,24,08,13,11.10
2006,09,24,08,14,11.10
2006,09,24,08,15,11.20
2006,09,24,08,16,11.40
2006,09,24,08,17,11.50
2006,09,24,08,18,11.60
2006,09,24,08,19,11.70
2006,09,24,08,20,11.80
2006,09,24,08,21,11.80
2006,09,24,08,22,11.90
2006,09,24,08,23,11.90
2006,09,24,08,24,12.00
2006,09,24,08,25,12.00
2006,09,24,08,26,12.10
2006,09,24,08,27,12.10
2006,09,24,08,28,12.20
2006,09,24,08,29,12.20
2006,09,24,08,30,12.30
2006,09,24,08,31,12.30
2006,09,24,08,32,12.40
2006,09,24,08,33,12.50
2006,09,24,08,34,12.60
2006,09,24,08,35,12.70
2006,09,24,08,36,12.70
2006,09,24,08,37,12.80
2006,09,24,08,38,12.80
2006,09,24,08,39,12.80
2006,09,24,08,40,13.00
2006,09,24,08,41,13.00
2006,09,24,08,42,13.10
2006,09,24,08,43,13.20
2006,09,24,08,44,13.30
2006,09,24,08,45,13.40
2006,09,24,08,46,13.50
2006,09,24,08,47,13.60
2006,09,24,08,48,13.70
2006,09,24,08,49,13.80
2006,09,24,08,50,13.90
2006,09,24,08,51,13.90
2006,09,24,08,52,14.10
2006,09,24,08,53,14.20
2006,09,24,08,54,14.40
2006,09,24,08,55,14.40
2006,09,24,08,56,14.50
2006,09,24,08,57,14.50
2006,09,24,08,58,14.60
2006,09,24,08,59,14.60
2006,09,24,09,00,14.60
2006,09,24,09,01,14.70
2006,09,24,09,02,14.70
2006,09,24,09,03,14.70
2006,09,24,09,04,14.70
2006,09,24,09,05,14.70
2006,09,24,09,06,14.80
2006,09,24,09,07,14.80
2006,09,24,09,08,14.80
2006,09,24,09,09,14.90
2006,09,24,09,10,15.00
2006,09,24,09,11,15.10
2006,09,24,09,12,15.10
2006,09,24,09,13,15.20
2006,09,24,09,14,15.30
2006,09,24,09,15,15.40
2006,09,24,09,16,15.50
2006,09,24,09,17,15.50
2006,09,24,09,18,15.50
2006,09,24,09,19,15.60
2006,09,24,09,20,15.60
2006,09,24,09,21,15.70
2006,09,24,09,22,15.80
2006,09,24,09,23,15.80
2006,09,24,09,24,15.80
2006,09,24,09,25,15.90
2006,09,24,09,26,15.90
2006,09,24,09,27,16.00
2006,09,24,09,28,16.10
2006,09,24,09,29,16.00
2006,09,24,09,30,15.90
2006,09,24,09,31,16.00
2006,09,24,09,32,15.90
2006,09,24,09,33,15.90
2006,09,24,09,34,16.00
2006,09,24,09,35,16.10
2006,09,24,09,36,16.10
2006,09,24,09,37,16.00
2006,09,24,09,38,15.90
2006,09,24,09,39,15.90
2006,09,24,09,40,15.90
2006,09,24,09,41,15.90
2006,09,24,09,42,16.00
2006,09,24,09,43,16.10
2006,09,24,09,44,16.10
2006,09,24,09,45,16.10
2006,09,24,09,46,16.10
2006,09,24,09,47,16.10
2006,09,24,09,48,16.20
2006,09,24,09,49,16.30
2006,09,24,09,50,16.30
2006,09,24,09,51,16.40
2006,09,24,09,52,16.40
2006,09,24,09,53,16.40
2006,09,24,09,54,16.40
2006,09,24,09,55,16.40
2006,09,24,09,56,16.50
2006,09,24,09,57,16.60
2006,09,24,09,58,16.70
2006,09,24,09,59,16.60
2006,09,24,10,00,16.60
2006,09,24,10,01,16.70
2006,09,24,10,02,16.70
2006,09,24,10,03,16.80
2006,09,24,10,04,16.90
2006,09,24,10,05,16.90
2006,09,24,10,06,16.90
2006,09,24,10,07,16.90
2006,09,24,10,08,16.90
2006,09,24,10,09,16.90
2006,09,24,10,10,17.00
2006,09,24,10,11,16.90
2006,09,24,10,12,16.90
2006,09,24,10,13,16.90
2006,09,24,10,14,17.00
2006,09,24,10,15,17.00
2006,09,24,10,16,17.10
2006,09,24,10,17,17.10
2006,09,24,10,18,17.10
2006,09,24,10,19,17.10
2006,09,24,10,20,17.10
2006,09,24,10,21,17.10
2006,09,24,10,22,17.10
2006,09,24,10,23,17.10
2006,09,24,10,24,17.00
2006,09,24,10,25,17.00
2006,09,24,10,26,17.00
2006,09,24,10,27,17.00
2006,09,24,10,28,17.00
2006,09,24,10,29,17.00
2006,09,24,10,30,17.00
2006,09,24,10,31,17.00
2006,09,24,10,32,17.10
2006,09,24,10,33,17.10
2006,09,24,10,34,17.20
2006,09,24,10,35,17.20
2006,09,24,10,36,17.20
2006,09,24,10,37,17.30
2006,09,24,10,38,17.40
2006,09,24,10,39,17.40
2006,09,24,10,40,17.50
2006,09,24,10,41,17.50
2006,09,24,10,42,17.50
2006,09,24,10,43,17.50
2006,09,24,10,44,17.60
2006,09,24,10,45,17.60
2006,09,24,10,46,17.70
2006,09,24,10,47,17.80
2006,09,24,10,48,17.80
2006,09,24,10,49,17.80
2006,09,24,10,50,17.80
2006,09,24,10,51,17.80
2006,09,24,10,52,17.80
2006,09,24,10,53,17.80
2006,09,24,10,54,17.80
2006,09,24,10,55,17.90
2006,09,24,10,56,18.10
2006,09,24,10,57,18.10
2006,09,24,10,58,17.90
2006,09,24,10,59,17.90
2006,09,24,11,00,17.90
2006,09,24,11,01,17.80
2006,09,24,11,02,17.80
2006,09,24,11,03,17.90
2006,09,24,11,04,17.90
2006,09,24,11,05,17.90
2006,09,24,11,06,18.00
2006,09,24,11,07,18.10
2006,09,24,11,08,18.20
2006,09,24,11,09,18.20
2006,09,24,11,10,18.20
2006,09,24,11,11,18.20
2006,09,24,11,12,18.30
2006,09,24,11,13,18.40
2006,09,24,11,14,18.30
2006,09,24,11,15,18.40
2006,09,24,11,16,18.40
2006,09,24,11,17,18.50
2006,09,24,11,18,18.50
2006,09,24,11,19,18.50
2006,09,24,11,20,18.60
2006,09,24,11,21,18.60
2006,09,24,11,22,18.70
2006,09,24,11,23,18.80
2006,09,24,11,24,18.80
2006,09,24,11,25,18.70
2006,09,24,11,26,18.70
2006,09,24,11,27,18.70
2006,09,24,11,28,18.70
2006,09,24,11,29,18.70
2006,09,24,11,30,18.80
2006,09,24,11,31,18.80
2006,09,24,11,32,18.80
2006,09,24,11,33,18.80
2006,09,24,11,34,18.80
2006,09,24,11,35,18.90
2006,09,24,11,36,18.90
2006,09,24,11,37,18.90
2006,09,24,11,38,19.00
2006,09,24,11,39,19.10
2006,09,24,11,40,19.10
2006,09,24,11,41,19.10
2006,09,24,11,42,19.10
2006,09,24,11,43,19.10
2006,09,24,11,44,19.10
2006,09,24,11,45,19.10
2006,09,24,11,46,19.10
2006,09,24,11,47,19.20
2006,09,24,11,48,19.20
2006,09,24,11,49,19.30
2006,09,24,11,50,19.40
2006,09,24,11,51,19.50
2006,09,24,11,52,19.60
2006,09,24,11,53,19.60
2006,09,24,11,54,19.60
2006,09,24,11,55,19.70
2006,09,24,11,56,19.70
2006,09,24,11,57,19.80
2006,09,24,11,58,19.80
2006,09,24,11,59,19.90
2006,09,24,12,00,19.90
2006,09,24,12,01,19.90
2006,09,24,12,02,19.90
2006,09,24,12,03,19.90
2006,09,24,12,04,19.90
2006,09,24,12,05,19.80
2006,09,24,12,06,19.90
2006,09,24,12,07,19.80
2006,09,24,12,08,19.80
2006,09,24,12,09,19.80
2006,09,24,12,10,19.80
2006,09,24,12,11,19.90
2006,09,24,12,12,19.90
2006,09,24,12,13,20.00
2006,09,24,12,14,20.10
2006,09,24,12,15,20.20
2006,09,24,12,16,20.20
2006,09,24,12,17,20.30
2006,09,24,12,18,20.40
2006,09,24,12,19,20.40
2006,09,24,12,20,20.50
2006,09,24,12,21,20.50
2006,09,24,12,22,20.50
2006,09,24,12,23,20.50
2006,09,24,12,24,20.60
2006,09,24,12,25,20.70
2006,09,24,12,26,20.70
2006,09,24,12,27,20.70
2006,09,24,12,28,20.70
2006,09,24,12,29,20.80
2006,09,24,12,30,20.80
2006,09,24,12,31,20.80
2006,09,24,12,32,20.80
2006,09,24,12,33,20.80
2006,09,24,12,34,20.80
2006,09,24,12,35,20.90
2006,09,24,12,36,21.00
2006,09,24,12,37,20.90
2006,09,24,12,38,20.80
2006,09,24,12,39,20.80
2006,09,24,12,40,20.80
2006,09,24,12,41,21.00
2006,09,24,12,42,21.00
2006,09,24,12,43,21.00
2006,09,24,12,44,21.00
2006,09,24,12,45,21.20
2006,09,24,12,46,21.30
2006,09,24,12,47,21.30
2006,09,24,12,48,21.10
2006,09,24,12,49,20.90
2006,09,24,12,50,20.80
2006,09,24,12,51,20.80
2006,09,24,12,52,20.80
2006,09,24,12,53,20.80
2006,09,24,12,54,20.80
2006,09,24,12,55,20.80
2006,09,24,12,56,20.70
2006,09,24,12,57,20.70
2006,09,24,12,58,20.70
2006,09,24,12,59,20.70
2006,09,24,13,00,20.80
2006,09,24,13,01,20.80
2006,09,24,13,02,20.70
2006,09,24,13,03,20.80
2006,09,24,13,04,20.80
2006,09,24,13,05,20.80
2006,09,24,13,06,20.80
2006,09,24,13,07,20.90
2006,09,24,13,08,20.90
2006,09,24,13,09,20.90
2006,09,24,13,10,20.90
2006,09,24,13,11,21.00
2006,09,24,13,12,21.10
2006,09,24,13,13,21.10
2006,09,24,13,14,21.10
2006,09,24,13,15,21.20
2006,09,24,13,16,21.20
2006,09,24,13,17,21.10
2006,09,24,13,18,21.00
2006,09,24,13,19,21.00
2006,09,24,13,20,21.00
2006,09,24,13,21,21.00
2006,09,24,13,22,21.00
2006,09,24,13,23,21.00
2006,09,24,13,24,21.00
2006,09,24,13,25,21.00
2006,09,24,13,26,21.00
2006,09,24,13,27,21.00
2006,09,24,13,28,21.00
2006,09,24,13,29,21.10
2006,09,24,13,30,21.10
2006,09,24,13,31,21.10
2006,09,24,13,32,21.10
2006,09,24,13,33,21.10
2006,09,24,13,34,21.20
2006,09,24,13,35,21.10
2006,09,24,13,36,21.10
2006,09,24,13,37,21.10
2006,09,24,13,38,21.10
2006,09,24,13,39,21.10
2006,09,24,13,40,21.10
2006,09,24,13,41,21.20
2006,09,24,13,42,21.20
2006,09,24,13,43,21.20
2006,09,24,13,44,21.20
2006,09,24,13,45,21.30
2006,09,24,13,46,21.20
2006,09,24,13,47,21.00
2006,09,24,13,48,21.00
2006,09,24,13,49,21.00
2006,09,24,13,50,21.00
2006,09,24,13,51,21.10
2006,09,24,13,52,21.10
2006,09,24,13,53,21.20
2006,09,24,13,54,21.20
2006,09,24,13,55,21.30
2006,09,24,13,56,21.20
2006,09,24,13,57,21.20
2006,09,24,13,58,21.30
2006,09,24,13,59,21.10
2006,09,24,14,00,21.00
2006,09,24,14,01,21.00
2006,09,24,14,02,20.90
2006,09,24,14,03,20.90
2006,09,24,14,04,20.80
2006,09,24,14,05,20.70
2006,09,24,14,06,20.90
2006,09,24,14,07,20.90
2006,09,24,14,08,20.90
2006,09,24,14,09,21.00
2006,09,24,14,10,21.10
2006,09,24,14,11,21.20
2006,09,24,14,12,21.20
2006,09,24,14,13,21.20
2006,09,24,14,14,21.30
2006,09,24,14,15,21.30
2006,09,24,14,16,21.20
2006,09,24,14,17,21.20
2006,09,24,14,18,21.10
2006,09,24,14,19,21.00
2006,09,24,14,20,21.00
2006,09,24,14,21,21.00
2006,09,24,14,22,21.00
2006,09,24,14,23,21.00
2006,09,24,14,24,21.00
2006,09,24,14,25,21.00
2006,09,24,14,26,21.00
2006,09,24,14,27,21.10
2006,09,24,14,28,21.10
2006,09,24,14,29,21.10
2006,09,24,14,30,21.20
2006,09,24,14,31,21.20
2006,09,24,14,32,21.20
2006,09,24,14,33,21.20
2006,09,24,14,34,21.20
2006,09,24,14,35,21.10
2006,09,24,14,36,21.00
2006,09,24,14,37,21.00
2006,09,24,14,38,20.90
2006,09,24,14,39,20.80
2006,09,24,14,40,20.90
2006,09,24,14,41,21.10
2006,09,24,14,42,21.20
2006,09,24,14,43,21.40
2006,09,24,14,44,21.60
2006,09,24,14,45,21.60
2006,09,24,14,46,21.70
2006,09,24,14,47,21.70
2006,09,24,14,48,21.70
2006,09,24,14,49,21.60
2006,09,24,14,50,21.70
2006,09,24,14,51,21.70
2006,09,24,14,52,21.70
2006,09,24,14,53,21.60
2006,09,24,14,54,21.60
2006,09,24,14,55,21.50
2006,09,24,14,56,21.40
2006,09,24,14,57,21.40
2006,09,24,14,58,21.30
2006,09,24,14,59,21.30
2006,09,24,15,00,21.20
2006,09,24,15,01,21.20
2006,09,24,15,02,21.10
2006,09,24,15,03,21.20
2006,09,24,15,04,21.30
2006,09,24,15,05,21.30
2006,09,24,15,06,21.40
2006,09,24,15,07,21.30
2006,09,24,15,08,21.30
2006,09,24,15,09,21.30
2006,09,24,15,10,21.30
2006,09,24,15,11,21.30
2006,09,24,15,12,21.30
2006,09,24,15,13,21.30
2006,09,24,15,14,21.30
2006,09,24,15,15,21.30
2006,09,24,15,16,21.30
2006,09,24,15,17,21.30
2006,09,24,15,18,21.30
2006,09,24,15,19,21.30
2006,09,24,15,20,21.30
2006,09,24,15,21,21.20
2006,09,24,15,22,21.20
2006,09,24,15,23,21.10
2006,09,24,15,24,21.20
2006,09,24,15,25,21.20
2006,09,24,15,26,21.40
2006,09,24,15,27,21.60
2006,09,24,15,28,21.90
2006,09,24,15,29,22.10
2006,09,24,15,30,22.20
2006,09,24,15,31,22.20
2006,09,24,15,32,22.10
2006,09,24,15,33,22.10
2006,09,24,15,34,22.00
2006,09,24,15,35,22.00
2006,09,24,15,36,21.90
2006,09,24,15,37,21.70
2006,09,24,15,38,21.60
2006,09,24,15,39,21.50
2006,09,24,15,40,21.50
2006,09,24,15,41,21.60
2006,09,24,15,42,21.80
2006,09,24,15,43,21.80
2006,09,24,15,44,21.70
2006,09,24,15,45,21.70
2006,09,24,15,46,21.70
2006,09,24,15,47,21.70
2006,09,24,15,48,21.80
2006,09,24,15,49,21.80
2006,09,24,15,50,21.80
2006,09,24,15,51,21.90
2006,09,24,15,52,22.00
2006,09,24,15,53,22.10
2006,09,24,15,54,22.20
2006,09,24,15,55,22.30
2006,09,24,15,56,22.50
2006,09,24,15,57,22.50
2006,09,24,15,58,22.60
2006,09,24,15,59,22.60
2006,09,24,16,00,22.60
2006,09,24,16,01,22.50
2006,09,24,16,02,22.30
2006,09,24,16,03,22.30
2006,09,24,16,04,22.10
2006,09,24,16,05,22.00
2006,09,24,16,06,22.00
2006,09,24,16,07,22.00
2006,09,24,16,08,22.00
2006,09,24,16,09,22.00
2006,09,24,16,10,22.00
2006,09,24,16,11,22.00
2006,09,24,16,12,22.00
2006,09,24,16,13,22.00
2006,09,24,16,14,22.00
2006,09,24,16,15,22.00
2006,09,24,16,16,22.00
2006,09,24,16,17,21.90
2006,09,24,16,18,21.80
2006,09,24,16,19,21.70
2006,09,24,16,20,21.60
2006,09,24,16,21,21.60
2006,09,24,16,22,21.60
2006,09,24,16,23,21.50
2006,09,24,16,24,21.30
2006,09,24,16,25,21.30
2006,09,24,16,26,21.20
2006,09,24,16,27,21.00
2006,09,24,16,28,20.80
2006,09,24,16,29,20.70
2006,09,24,16,30,20.50
2006,09,24,16,31,20.40
2006,09,24,16,32,20.30
2006,09,24,16,33,20.20
2006,09,24,16,34,20.20
2006,09,24,16,35,20.10
2006,09,24,16,36,20.10
2006,09,24,16,37,20.10
2006,09,24,16,38,20.10
2006,09,24,16,39,20.10
2006,09,24,16,40,20.10
2006,09,24,16,41,20.00
2006,09,24,16,42,19.90
2006,09,24,16,43,19.80
2006,09,24,16,44,19.70
2006,09,24,16,45,19.60
2006,09,24,16,46,19.50
2006,09,24,16,47,19.50
2006,09,24,16,48,19.50
2006,09,24,16,49,19.40
2006,09,24,16,50,19.40
2006,09,24,16,51,19.40
2006,09,24,16,52,19.40
2006,09,24,16,53,19.40
2006,09,24,16,54,19.40
2006,09,24,16,55,19.40
2006,09,24,16,56,19.30
2006,09,24,16,57,19.30
2006,09,24,16,58,19.30
2006,09,24,16,59,19.30
2006,09,24,17,00,19.30
2006,09,24,17,01,19.40
2006,09,24,17,02,19.40
2006,09,24,17,03,19.50
2006,09,24,17,04,19.50
2006,09,24,17,05,19.40
2006,09,24,17,06,19.30
2006,09,24,17,07,19.30
2006,09,24,17,08,19.20
2006,09,24,17,09,19.20
2006,09,24,17,10,19.30
2006,09,24,17,11,19.20
2006,09,24,17,12,19.20
2006,09,24,17,13,19.20
2006,09,24,17,14,19.20
2006,09,24,17,15,19.30
2006,09,24,17,16,19.40
2006,09,24,17,17,19.50
2006,09,24,17,18,19.60
2006,09,24,17,19,19.60
2006,09,24,17,20,19.60
2006,09,24,17,21,19.70
2006,09,24,17,22,19.90
2006,09,24,17,23,19.90
2006,09,24,17,24,19.90
2006,09,24,17,25,19.90
2006,09,24,17,26,19.90
2006,09,24,17,27,19.90
2006,09,24,17,28,19.90
2006,09,24,17,29,19.80
2006,09,24,17,30,19.70